Tracking 29510 objects as of 16-Sep-2024
HD Live streaming from Space Station
objects crossing your sky now

FENGYUN 1C DEB

Track FENGYUN 1C DEB now!
10-day predictions


NORAD ID: 30545
Int'l Code: 1999-025AKK
Perigee: 832.3 km
Apogee: 1,549.4 km
Inclination: 99.0 °
Period: 109.1 minutes
Semi major axis: 7561 km
RCS: 0.011 m2 (small)
Launch date: May 10, 1999
Source: People's Republic of China (PRC)
Launch site: Taiyaun Space Center, China (TSC)

Note: This is SATELLITE DEBRIS
Your satellite tracking list
Your tracking list is empty




NASA's NSSDC Master Catalog

Two Line Element Set (TLE):
1 30545U 99025AKK 24259.53703009  .00001657  00000-0  23265-2 0  9990
2 30545  99.0495 166.7233 0474201  27.2831 335.2366 13.20266569849485
Source of the keplerian elements: AFSPC